Location: Newark
(42.9260°N, 89.3850°W)
Time: 15:43:46
(UTC+00:00)

STARLINK-1046 - Visible Passes

Search period start: 04 April 2020 00:00
Search period end: 14 April 2020 00:00
Orbit: 549 x 550 km, 53.0° (Epoch: 04 April)

Date Brightness Start Highest point End Pass type
(mag) Time Alt. Az. Time Alt. Az. Time Alt. Az.
04 Apr 5.6 09:50:25 14° S 09:52:46 23° SE 09:56:02 10° ENE visible
05 Apr 5.0 09:45:25 22° S 09:47:10 30° SE 09:50:50 10° ENE visible
06 Apr 4.5 09:40:19 31° S 09:41:35 41° SE 09:45:29 10° ENE visible
07 Apr 4.0 09:35:06 44° S 09:36:00 55° SE 09:40:04 10° ENE visible
08 Apr 3.6 09:29:48 60° SSW 09:30:26 75° SE 09:34:34 10° ENE visible
09 Apr 3.4 09:24:26 70° WSW 09:24:52 84° NW 09:29:02 10° NE visible
10 Apr 3.6 09:18:59 62° WNW 09:19:19 65° NNW 09:23:27 10° NE visible
11 Apr 6.7 07:37:50 11° ENE 07:37:50 11° ENE 07:37:58 10° ENE visible
11 Apr 4.0 09:13:28 50° NW 09:13:47 51° NNW 09:17:50 10° NE visible
11 Apr 5.5 10:50:49 10° WNW 10:54:04 22° N 10:57:20 10° NE visible
12 Apr 6.6 07:32:16 12° ENE 07:32:16 12° ENE 07:32:33 10° ENE visible
12 Apr 4.4 09:07:54 41° NW 09:08:14 42° NNW 09:12:12 10° NE visible
12 Apr 5.7 10:45:28 10° NW 10:48:39 21° N 10:51:48 10° NE visible
13 Apr 6.6 07:26:39 12° ENE 07:26:39 12° ENE 07:27:02 10° ENE visible
13 Apr 4.7 09:02:17 34° NW 09:02:43 35° NNW 09:06:33 10° NE visible
13 Apr 5.8 10:40:05 10° NW 10:43:12 20° N 10:46:19 10° NE visible
